Location: Pella
(41.4080°N, 92.9160°W)
Time: 10:15:51
(UTC-05:00)

Daily predictions for brighter satellites

Satellite Brightness Start Highest point End
(mag) Time Altitude Azimuth Time Altitude Azimuth Time Altitude Azimuth
Cosmos-2242 4.1 19:57:58 10° SE 20:01:18 23° E 20:04:39 10° NE
FengYun 1-2 T 4.3 19:56:15 10° SSE 20:01:44 61° ENE 20:07:17 10° N
BREEZE-M DEB (TANK) 3.6 20:00:29 10° S 20:03:11 28° SE 20:09:25 10° ENE
Cosmos 1766 Rocket 4.4 19:59:39 10° NNE 20:03:41 32° ENE 20:07:42 10° SE
Meteor 1-24 Rocket 4.4 20:02:18 10° NNW 20:07:46 61° W 20:13:25 10° S
ALOS 2.2 20:03:53 10° SSE 20:08:32 79° ENE 20:13:14 10° N
Timation 1 Rocket 4.4 20:04:41 10° SSW 20:10:42 84° ESE 20:16:45 10° NNE
Cosmos 1271 Rocket 3.7 20:09:07 10° SSE 20:12:34 28° E 20:16:03 10° NNE
GP-B 3.9 20:10:05 10° SE 20:13:58 31° E 20:17:52 10° NNE
Cosmos 482 Debris 4.5 20:14:15 10° NNW 20:15:37 17° NNE 20:16:39 12° ENE
Cosmos 1674 3.2 20:12:10 10° N 20:15:43 37° ENE 20:19:16 10° SSE
Spot 2 Rocket 3.6 20:12:02 10° SSE 20:17:02 59° ENE 20:22:04 10° N
Meteor 1-4 Rocket 2.3 20:14:07 10° S 20:17:34 75° E 20:21:04 10° NNE
Cosmos 1758 3.3 20:18:50 10° S 20:22:48 86° E 20:26:50 10° N
USA 186 2.3 20:22:52 18° E 20:23:33 21° ENE 20:25:18 10° NNE
Resurs 01 Rocket 1.6 20:20:52 10° SSE 20:25:16 74° ENE 20:29:42 10° N
Cosmos 2098 Rocket 4.4 20:18:10 10° S 20:25:32 75° E 20:33:04 10° N
Cosmos 1184 Rocket 4.4 20:25:05 10° NNE 20:27:31 18° ENE 20:28:29 16° E
Cosmos 1953 2.3 20:24:18 10° S 20:28:22 89° W 20:32:25 10° N
CZ-4C R/B 3.8 20:25:57 10° SE 20:33:11 - ENE 20:26:27 11° SE
GPS 2-05 Rocket1 4.0 20:27:39 10° WSW 20:30:50 32° S 20:32:57 17° SE
Cosmos 1544 3.9 20:29:06 10° SSW 20:32:40 54° W 20:36:18 10° N
Cosmos 1867 3.9 20:27:39 10° SW 20:33:05 71° NW 20:38:34 10° NNE
Cosmos 1743 Rocket 4.3 20:30:41 10° NNE 20:34:41 32° ENE 20:37:42 15° SE
Envisat 3.7 20:31:29 13° SE 20:35:23 33° ENE 20:39:54 10° N
SeaSat 1 2.6 20:34:37 10° SSE 20:39:32 77° WSW 20:44:30 10° NNW
Cosmos 2100 Rocket 4.1 20:34:49 10° S 20:41:00 60° E 20:47:16 10° NNE
CZ-4B DEB 3.5 20:41:50 26° ESE 20:42:40 30° ENE 20:45:27 10° N
Cosmos 2369 Rocket 3.4 20:42:50 19° ESE 20:43:11 19° E 20:47:01 10° ENE
Cosmos 1939 Rocket 3.9 20:41:39 21° ESE 20:43:22 28° ENE 20:46:56 10° N
Fregat R/B Cluster 11 4.3 20:38:09 10° SSW 20:44:27 85° WNW 20:47:50 10° NNE
ERS-1 Rocket 4.2 20:43:13 19° E 20:44:58 23° ENE 20:48:50 10° NNE
Cosmos 1125 Rocket 4.3 20:42:04 10° SW 20:47:08 54° WNW 20:52:16 10° N
Geosat 4.1 20:42:48 10° NE 20:47:43 52° ESE 20:52:35 10° S
Lacrosse 5 rocket 1.0 20:44:07 10° NW 20:48:04 88° NE 20:50:09 25° SE
Cosmos 1048 Rocket 4.5 20:44:23 10° NNW 20:49:26 60° WSW 20:54:28 10° S
CZ-2D R/B 3.4 20:45:52 10° S 20:49:44 78° WSW 20:53:39 10° NNW
Helios 1B rocket 2.5 20:45:52 10° NNE 20:49:55 55° E 20:53:57 10° S
Cosmos 2151 4.1 20:47:26 10° NNE 20:50:56 24° ENE 20:51:27 24° E
ISS -3.1 20:50:03 10° WSW 20:53:14 53° NNW 20:55:50 15° NE
Cosmos 1408 Rocket 3.8 20:49:11 10° NNW 20:53:39 75° W 20:58:06 10° S
Cosmos 1833 Rocket 3.1 20:49:11 10° NNW 20:54:45 65° WSW 21:00:18 10° S
Resurs 1-3 4.2 20:53:55 10° S 20:58:12 56° W 21:02:32 10° NNW
H-2A R/B 4.2 20:59:47 10° ENE 20:59:52 10° ENE 21:00:03 10° NE
TIMED 4.4 20:57:02 10° SSW 21:01:22 75° ESE 21:05:45 10° NNE
MINOTAUR R/B 4.4 21:00:52 10° SSW 21:03:44 81° WNW 21:06:39 10° NNE
CZ-4B DEB 4.4 21:02:56 27° SSE 21:04:46 81° E 21:08:22 10° N
Cosmos 1733 3.5 21:01:05 10° SSW 21:04:56 69° W 21:08:49 10° N
ATLAS 5 CENTAUR R/B 2.5 21:00:32 10° SW 21:05:09 55° NW 21:10:12 10° NNE
Cosmos 1802 Rocket 3.9 21:00:00 10° S 21:06:05 73° E 21:12:16 10° N
Cosmos 1842 Rocket 3.5 21:05:33 12° S 21:09:37 59° E 21:13:56 10° NNE
Cosmos 1470 3.6 21:08:21 10° SSW 21:12:14 53° W 21:16:08 10° N
Meteor 1-29 2.9 21:11:07 10° NNE 21:14:37 89° W 21:17:45 12° SSW
Helios 1A 3.3 21:12:42 15° S 21:16:07 63° W 21:20:17 10° NNW
Cosmos 1459 Rocket 4.3 21:17:37 10° SSW 21:23:50 69° W 21:30:00 10° N
Lacrosse 5 4.3 21:21:34 10° WNW 21:25:00 18° NNW 21:28:27 10° NNE
Cosmos 2061 Rocket 4.2 21:18:55 10° SSW 21:25:18 74° W 21:31:47 10° N
Cosmos 1340 Rocket 4.2 21:26:42 10° NNW 21:30:27 38° W 21:33:26 14° SSW
SJ-11-01 4.3 21:28:33 32° S 21:30:44 80° WSW 21:35:28 10° NNW
SPOT 5 3.9 21:31:28 33° ENE 21:31:28 33° ENE 21:36:07 10° N
Cosmos 1356 Rocket 3.3 21:28:57 10° NNW 21:33:03 80° W 21:33:41 61° S
Meteor 2-17 Rocket 4.5 21:27:11 10° S 21:33:19 82° W 21:39:31 10° N
Cosmos 2233 Rocket 4.3 21:33:29 42° E 21:33:47 42° E 21:39:30 10° NNE
Cosmos 2251 Rocket 3.5 21:29:11 10° NNW 21:34:32 81° WSW 21:36:35 39° S
YAOGAN 6 3.4 21:35:31 43° NNE 21:35:31 43° NNE 21:38:15 10° N
ARGOS 4.0 21:36:23 33° ENE 21:36:23 33° ENE 21:40:51 10° N
Cosmos 2082 Rocket 4.1 21:32:25 10° NW 21:37:00 26° WSW 21:41:33 10° SSW
USA 215 3.2 21:31:27 10° NE 21:37:50 55° SE 21:44:12 10° SSW
Cosmos 1864 Rocket 4.4 21:34:28 15° S 21:39:51 77° E 21:46:09 10° N
CZ-3B DEB 4.1 21:35:53 10° WNW 21:41:52 22° NNW 21:45:23 10° NNE
SL-14 R/B 4.0 21:46:43 10° NNW 21:50:28 47° W 21:50:45 46° WSW
Meteor 1-11 4.4 21:49:23 10° NNW 21:54:56 68° W 21:56:51 41° SSW
Cosmos 2221 3.8 21:58:07 32° NNE 21:58:07 32° NNE 22:00:33 10° N
Cosmos 389 Rocket 4.1 21:58:09 33° NW 21:58:09 33° NW 22:00:40 10° N
Gblst 52 Del rocket 4.2 21:59:13 10° WSW 22:05:07 76° NNW 22:06:17 56° NE
Cosmos 2058 3.8 22:02:12 10° NNW 22:05:31 48° NW 22:05:31 48° NW
USA 267 4.1 22:08:51 33° NE 22:10:26 37° NNE 22:16:21 10° NW
H-2A R/B 4.5 22:13:53 13° NNE 22:13:53 13° NNE 22:14:28 10° N
Cosmos 1626 4.3 22:08:24 10° N 22:09:54 23° N 22:09:54 23° N
CZ-4C R/B 3.0 22:10:33 10° SW 22:17:57 40° NNE 22:21:47 10° NNE
MetOp-B 4.3 22:23:04 68° WNW 22:23:04 68° WNW 22:27:56 10° NNW
ERS-1 Rocket 3.8 22:23:12 44° WSW 22:23:27 44° W 22:28:17 10° NNW
Cosmos 2369 Rocket 2.6 22:23:53 29° SW 22:26:39 59° WNW 22:32:13 10° NNE
ISS -0.3 22:28:05 10° NW 22:28:31 12° NW 22:28:31 12° NW
H-2A R/B 3.2 22:40:24 38° N 22:40:24 38° N 22:43:38 10° N
CZ-3 Stage 3 4.2 22:32:04 10° W 22:46:22 29° SW 22:46:33 29° SW
Cosmos 1943 Rocket 4.0 22:50:28 22° NNE 22:50:28 22° NNE 22:52:24 10° NNE
Lacrosse 5 4.5 23:07:16 10° NNW 23:09:52 14° N 23:10:11 14° N
Terra 4.2 23:14:15 19° NNW 23:14:15 19° NNW 23:15:35 10° NNW
USA 215 4.0 23:14:33 10° NE 23:20:47 49° NNW 23:27:00 10° WSW
